�������l�o���
Date,Time,MP-1(��Sv/h),MP-2(��Sv/h),MP-3(��Sv/h),MP-4(��Sv/h),MP-5(��Sv/h),MP-6(��Sv/h),MP-7(��Sv/h),MP-8(��Sv/h),����,����(m/s),���J
2018/01/05,00:00,0.895,1.498,0.941,1.780,1.197,0.492,0.879,0.845,���k��,5.5,��
2018/01/05,00:10,0.900,1.501,0.938,1.779,1.197,0.491,0.879,0.845,���k��,4.5,��
2018/01/05,00:20,0.897,1.501,0.939,1.779,1.198,0.492,0.880,0.847,��,4.0,��
2018/01/05,00:30,0.896,1.497,0.938,1.780,1.196,0.493,0.881,0.844,��,4.6,��
2018/01/05,00:40,0.897,1.501,0.940,1.779,1.195,0.492,0.883,0.845,��,5.2,��
2018/01/05,00:50,0.897,1.498,0.941,1.780,1.197,0.491,0.879,0.845,���k��,6.4,��
2018/01/05,01:00,0.896,1.500,0.940,1.780,1.197,0.491,0.879,0.845,���k��,7.4,��
2018/01/05,01:10,0.897,1.501,0.939,1.777,1.199,0.491,0.881,0.845,���k��,8.1,��
2018/01/05,01:20,0.897,1.500,0.941,1.781,1.199,0.492,0.878,0.844,���k��,6.6,��
2018/01/05,01:30,0.896,1.500,0.942,1.781,1.197,0.492,0.878,0.845,���k��,5.7,��
2018/01/05,01:40,0.896,1.500,0.940,1.781,1.195,0.493,0.880,0.845,���k��,5.4,��
2018/01/05,01:50,0.897,1.498,0.942,1.781,1.196,0.491,0.880,0.845,���k��,4.7,��
2018/01/05,02:00,0.896,1.498,0.940,1.780,1.196,0.491,0.881,0.843,���k��,4.3,��
2018/01/05,02:10,0.896,1.500,0.942,1.779,1.199,0.492,0.880,0.844,���k��,4.0,��
2018/01/05,02:20,0.898,1.501,0.941,1.776,1.195,0.491,0.881,0.846,�k��,4.6,��
2018/01/05,02:30,0.897,1.501,0.939,1.779,1.195,0.490,0.880,0.845,�k��,3.2,��
2018/01/05,02:40,0.897,1.500,0.938,1.777,1.194,0.492,0.878,0.844,���k��,3.1,��
2018/01/05,02:50,0.898,1.499,0.938,1.779,1.197,0.493,0.879,0.844,�k��,2.6,��
2018/01/05,03:00,0.895,1.498,0.938,1.779,1.195,0.493,0.877,0.843,�k��,2.5,��
2018/01/05,03:10,0.895,1.500,0.941,1.778,1.194,0.492,0.881,0.844,�k��,2.8,��
2018/01/05,03:20,0.896,1.497,0.939,1.781,1.196,0.492,0.881,0.843,���k��,2.9,��
2018/01/05,03:30,0.896,1.499,0.940,1.774,1.196,0.492,0.879,0.845,�k��,3.4,��
2018/01/05,03:40,0.897,1.498,0.938,1.777,1.196,0.493,0.880,0.845,�k��,4.8,��
2018/01/05,03:50,0.895,1.499,0.938,1.778,1.197,0.494,0.879,0.845,�k��,3.5,��
2018/01/05,04:00,0.896,1.499,0.939,1.779,1.197,0.492,0.880,0.844,�k��,3.8,��
2018/01/05,04:10,0.898,1.498,0.938,1.779,1.196,0.492,0.877,0.843,���k��,3.2,��
2018/01/05,04:20,0.898,1.496,0.938,1.778,1.196,0.492,0.878,0.845,�k��,3.6,��
2018/01/05,04:30,0.895,1.499,0.936,1.774,1.194,0.492,0.878,0.843,�k��,3.2,��
2018/01/05,04:40,0.896,1.498,0.937,1.778,1.196,0.492,0.879,0.844,�k��,3.2,��
2018/01/05,04:50,0.895,1.496,0.938,1.774,1.197,0.492,0.879,0.846,�k��,3.0,��
2018/01/05,05:00,0.895,1.499,0.939,1.774,1.194,0.491,0.879,0.845,���k��,3.1,��
2018/01/05,05:10,0.895,1.497,0.938,1.778,1.191,0.492,0.880,0.844,�k��,4.7,��
2018/01/05,05:20,0.895,1.496,0.938,1.779,1.196,0.491,0.879,0.845,�k��,5.6,��
2018/01/05,05:30,0.896,1.497,0.939,1.778,1.194,0.492,0.878,0.845,���k��,4.5,��
2018/01/05,05:40,0.895,1.497,0.938,1.780,1.193,0.492,0.880,0.844,�k��,4.5,��
2018/01/05,05:50,0.895,1.498,0.939,1.780,1.195,0.491,0.880,0.846,�k��,4.3,��
2018/01/05,06:00,0.896,1.499,0.939,1.778,1.194,0.491,0.877,0.843,���k��,5.3,��
2018/01/05,06:10,0.894,1.497,0.939,1.778,1.195,0.492,0.880,0.844,�k��,5.8,��
2018/01/05,06:20,0.897,1.497,0.939,1.777,1.194,0.492,0.879,0.843,�k��,4.8,��
2018/01/05,06:30,0.896,1.497,0.938,1.777,1.194,0.492,0.877,0.844,�k��,3.6,��
2018/01/05,06:40,0.897,1.496,0.940,1.775,1.194,0.490,0.880,0.844,�k��,3.8,��
2018/01/05,06:50,0.895,1.497,0.937,1.777,1.193,0.492,0.879,0.844,���k��,3.9,��
2018/01/05,07:00,0.895,1.498,0.937,1.774,1.195,0.493,0.878,0.843,���k��,2.9,��
2018/01/05,07:10,0.895,1.497,0.938,1.778,1.195,0.492,0.881,0.844,���k��,2.9,��
2018/01/05,07:20,0.896,1.499,0.940,1.777,1.196,0.492,0.877,0.844,���k��,4.0,��
2018/01/05,07:30,0.896,1.497,0.937,1.780,1.195,0.491,0.878,0.844,��,4.6,��
2018/01/05,07:40,0.895,1.497,0.940,1.777,1.194,0.491,0.879,0.844,��,4.3,��
2018/01/05,07:50,0.896,1.498,0.938,1.776,1.195,0.492,0.879,0.843,��,4.8,��
2018/01/05,08:00,0.898,1.498,0.938,1.776,1.194,0.492,0.881,0.846,���k��,5.5,��
2018/01/05,08:10,0.895,1.497,0.940,1.778,1.196,0.492,0.878,0.846,���k��,4.7,��
2018/01/05,08:20,0.899,1.500,0.941,1.778,1.195,0.491,0.880,0.844,���k��,4.0,��
2018/01/05,08:30,0.895,1.499,0.940,1.779,1.197,0.492,0.882,0.845,���k��,3.5,��
2018/01/05,08:40,0.898,1.498,0.941,1.778,1.193,0.491,0.880,0.847,���k��,3.2,��
2018/01/05,08:50,0.899,1.498,0.940,1.778,1.194,0.491,0.879,0.846,�k��,3.0,��
2018/01/05,09:00,0.900,1.502,0.942,1.779,1.196,0.493,0.880,0.846,�k��,2.3,��
2018/01/05,09:10,0.898,1.501,0.939,1.779,1.195,0.493,0.881,0.847,�k�k��,2.3,��
2018/01/05,09:20,0.899,1.499,0.938,1.780,1.195,0.492,0.882,0.846,�k�k��,2.0,��
2018/01/05,09:30,0.901,1.501,0.941,1.780,1.194,0.492,0.881,0.848,�k�k��,1.7,��
2018/01/05,09:40,0.902,1.500,0.941,1.779,1.198,0.492,0.881,0.847,�k�k��,2.8,��
2018/01/05,09:50,0.902,1.501,0.942,1.779,1.196,0.492,0.883,0.846,�k�k��,1.7,��
2018/01/05,10:00,0.900,1.501,0.942,1.782,1.197,0.493,0.883,0.847,�k�k��,1.5,��
2018/01/05,10:10,0.898,1.499,0.942,1.782,1.197,0.493,0.881,0.846,���k��,1.5,��
2018/01/05,10:20,0.899,1.503,0.942,1.783,1.197,0.493,0.882,0.846,���k��,2.3,��
2018/01/05,10:30,0.901,1.499,0.942,1.777,1.196,0.494,0.881,0.847,��,2.5,��
2018/01/05,10:40,0.899,1.497,0.944,1.781,1.196,0.493,0.882,0.848,���쓌,3.4,��
2018/01/05,10:50,0.900,1.499,0.943,1.782,1.198,0.493,0.879,0.845,��,3.4,��
2018/01/05,11:00,0.902,1.502,0.944,1.780,1.198,0.493,0.879,0.845,���k��,3.4,��
2018/01/05,11:10,0.904,1.499,0.941,1.783,1.198,0.492,0.881,0.845,��,3.7,��
2018/01/05,11:20,0.900,1.499,0.943,1.783,1.201,0.492,0.880,0.848,��,3.3,��
2018/01/05,11:30,0.902,1.502,0.943,1.781,1.201,0.493,0.882,0.845,���쓌,3.1,��
2018/01/05,11:40,0.902,1.501,0.944,1.785,1.202,0.495,0.883,0.845,���쓌,2.9,��
2018/01/05,11:50,0.904,1.499,0.944,1.783,1.201,0.492,0.883,0.847,�쓌,2.5,��
2018/01/05,12:00,0.902,1.503,0.942,1.783,1.201,0.495,0.884,0.846,���쓌,2.9,��
2018/01/05,12:10,0.901,1.501,0.943,1.782,1.202,0.493,0.884,0.848,�쓌,3.6,��
2018/01/05,12:20,0.903,1.502,0.944,1.783,1.202,0.494,0.885,0.847,���쓌,3.1,��
2018/01/05,12:30,0.903,1.502,0.942,1.781,1.202,0.494,0.884,0.849,�쓌,3.3,��
2018/01/05,12:40,0.903,1.503,0.944,1.782,1.204,0.493,0.885,0.847,���쓌,2.6,��
2018/01/05,12:50,0.906,1.504,0.945,1.787,1.205,0.495,0.883,0.849,��쓌,3.4,��
2018/01/05,13:00,0.903,1.502,0.945,1.785,1.203,0.495,0.884,0.847,�쓌,3.8,��
2018/01/05,13:10,0.903,1.506,0.945,1.785,1.202,0.494,0.885,0.846,�쓌,3.1,��
2018/01/05,13:20,0.903,1.505,0.945,1.784,1.202,0.494,0.884,0.845,��쓌,3.3,��
2018/01/05,13:30,0.903,1.504,0.946,1.784,1.204,0.494,0.885,0.845,��쓌,4.1,��
2018/01/05,13:40,0.903,1.502,0.947,1.786,1.202,0.494,0.883,0.848,��쓌,3.5,��
2018/01/05,13:50,0.905,1.503,0.945,1.784,1.203,0.496,0.886,0.847,��쓌,4.2,��
2018/01/05,14:00,0.905,1.506,0.944,1.784,1.200,0.495,0.883,0.848,��쓌,4.5,��
2018/01/05,14:10,0.907,1.505,0.945,1.785,1.202,0.495,0.885,0.849,��쓌,4.3,��
2018/01/05,14:20,0.903,1.503,0.946,1.783,1.204,0.495,0.884,0.848,��쓌,4.6,��
2018/01/05,14:30,0.904,1.507,0.947,1.783,1.205,0.495,0.884,0.849,�쓌,4.5,��
2018/01/05,14:40,0.904,1.505,0.945,1.785,1.205,0.494,0.885,0.847,��쓌,3.5,��
2018/01/05,14:50,0.903,1.503,0.947,1.784,1.204,0.498,0.883,0.847,��쓌,3.0,��
2018/01/05,15:00,0.905,1.505,0.946,1.785,1.203,0.494,0.883,0.847,��쓌,3.7,��
2018/01/05,15:10,0.902,1.505,0.945,1.789,1.203,0.492,0.885,0.848,��쓌,3.5,��
2018/01/05,15:20,0.906,1.505,0.946,1.781,1.203,0.494,0.883,0.848,��쓌,3.2,��
2018/01/05,15:30,0.903,1.505,0.946,1.785,1.203,0.495,0.883,0.848,��쓌,2.9,��
2018/01/05,15:40,0.903,1.506,0.946,1.785,1.203,0.495,0.884,0.849,��쓌,3.0,��
2018/01/05,15:50,0.903,1.505,0.944,1.783,1.205,0.495,0.883,0.848,��,2.9,��
2018/01/05,16:00,0.904,1.508,0.947,1.781,1.203,0.495,0.884,0.849,��,2.8,��
2018/01/05,16:10,0.906,1.507,0.946,1.781,1.202,0.495,0.885,0.848,��쓌,2.6,��
2018/01/05,16:20,0.905,1.503,0.946,1.782,1.204,0.497,0.883,0.847,��,3.2,��
2018/01/05,16:30,0.905,1.505,0.945,1.782,1.204,0.494,0.885,0.847,��,3.0,��
2018/01/05,16:40,0.904,1.505,0.945,1.783,1.204,0.493,0.884,0.847,��,3.9,��
2018/01/05,16:50,0.902,1.505,0.947,1.784,1.201,0.494,0.884,0.847,��,3.9,��
2018/01/05,17:00,0.902,1.502,0.946,1.780,1.204,0.495,0.883,0.847,��,3.0,��
2018/01/05,17:10,0.905,1.504,0.944,1.784,1.202,0.494,0.882,0.847,��쐼,3.1,��
2018/01/05,17:20,0.905,1.505,0.945,1.780,1.202,0.494,0.884,0.848,��,2.9,��
2018/01/05,17:30,0.902,1.505,0.943,1.783,1.203,0.494,0.884,0.846,��,2.6,��
2018/01/05,17:40,0.903,1.503,0.945,1.783,1.202,0.493,0.884,0.849,��쐼,2.5,��
2018/01/05,17:50,0.902,1.504,0.945,1.784,1.202,0.493,0.882,0.848,��,3.4,��
2018/01/05,18:00,0.903,1.504,0.946,1.783,1.200,0.495,0.884,0.845,��쐼,2.3,��
2018/01/05,18:10,0.903,1.503,0.945,1.783,1.203,0.493,0.881,0.849,��쐼,2.3,��
2018/01/05,18:20,0.902,1.505,0.947,1.783,1.202,0.495,0.882,0.848,��쐼,2.5,��
2018/01/05,18:30,0.903,1.506,0.943,1.782,1.201,0.494,0.883,0.846,��쐼,2.6,��
2018/01/05,18:40,0.903,1.504,0.944,1.782,1.201,0.494,0.883,0.847,�쐼,2.9,��
2018/01/05,18:50,0.901,1.505,0.945,1.783,1.202,0.495,0.883,0.849,��쐼,3.2,��
2018/01/05,19:00,0.904,1.505,0.945,1.781,1.200,0.495,0.881,0.847,�쐼,3.4,��
2018/01/05,19:10,0.902,1.504,0.946,1.780,1.202,0.494,0.881,0.846,���쐼,2.6,��
2018/01/05,19:20,0.903,1.504,0.944,1.782,1.202,0.494,0.882,0.848,��,3.1,��
2018/01/05,19:30,0.901,1.503,0.944,1.781,1.202,0.495,0.883,0.847,��,4.4,��
2018/01/05,19:40,0.903,1.504,0.945,1.781,1.201,0.494,0.883,0.846,��,4.0,��
2018/01/05,19:50,0.902,1.506,0.945,1.782,1.202,0.494,0.882,0.847,��,3.9,��
2018/01/05,20:00,0.901,1.503,0.945,1.782,1.200,0.495,0.882,0.846,��,4.2,��
2018/01/05,20:10,0.902,1.503,0.944,1.781,1.201,0.494,0.881,0.846,��,4.2,��
2018/01/05,20:20,0.903,1.504,0.944,1.783,1.202,0.494,0.884,0.848,�k��,1.9,��
2018/01/05,20:30,0.901,1.504,0.944,1.782,1.205,0.494,0.882,0.847,�k�k��,1.2,��
2018/01/05,20:40,0.902,1.503,0.946,1.783,1.200,0.494,0.883,0.846,�k�k��,2.6,��
2018/01/05,20:50,0.902,1.504,0.944,1.783,1.202,0.495,0.884,0.847,�k��,3.8,��
2018/01/05,21:00,0.902,1.504,0.945,1.784,1.201,0.494,0.882,0.847,���k��,2.0,��
2018/01/05,21:10,0.903,1.504,0.945,1.784,1.200,0.493,0.884,0.847,���k��,2.2,��
2018/01/05,21:20,0.900,1.503,0.945,1.785,1.201,0.494,0.882,0.848,�k��,3.8,��
2018/01/05,21:30,0.901,1.502,0.945,1.780,1.200,0.494,0.882,0.847,�k��,5.2,��
2018/01/05,21:40,0.902,1.503,0.943,1.780,1.201,0.493,0.882,0.845,�k��,5.3,��
2018/01/05,21:50,0.901,1.504,0.944,1.781,1.201,0.494,0.883,0.848,�k��,4.8,��
2018/01/05,22:00,0.902,1.502,0.944,1.783,1.203,0.494,0.880,0.846,�k��,3.9,��
2018/01/05,22:10,0.903,1.502,0.944,1.780,1.203,0.494,0.881,0.846,�k��,4.5,��
2018/01/05,22:20,0.901,1.502,0.942,1.780,1.199,0.494,0.881,0.846,���k��,5.0,��
2018/01/05,22:30,0.901,1.501,0.943,1.781,1.199,0.493,0.881,0.846,���k��,4.6,��
2018/01/05,22:40,0.901,1.506,0.945,1.780,1.200,0.493,0.883,0.845,���k��,5.0,��
2018/01/05,22:50,0.901,1.504,0.944,1.781,1.201,0.495,0.882,0.845,���k��,4.0,��
2018/01/05,23:00,0.901,1.502,0.942,1.780,1.201,0.496,0.880,0.846,���k��,3.5,��
2018/01/05,23:10,0.903,1.506,0.943,1.779,1.199,0.494,0.882,0.846,���k��,3.9,��
2018/01/05,23:20,0.901,1.503,0.943,1.781,1.201,0.494,0.881,0.848,���k��,3.8,��
2018/01/05,23:30,0.902,1.502,0.942,1.781,1.203,0.494,0.883,0.848,���k��,3.2,��
2018/01/05,23:40,0.902,1.503,0.943,1.781,1.202,0.494,0.883,0.847,���k��,4.1,��
2018/01/05,23:50,0.901,1.504,0.944,1.780,1.200,0.494,0.881,0.845,���k��,5.4,��
